Orbital Elements at Epoch 2459000.5 (2020-May-31.0) TDB
Reference: JPL 16 (heliocentric ecliptic J2000)
Element | Value | Uncertainty (1-sigma) | Units |
e | .2087653080721781 | 3.8889e-08 | |
a | 3.108999900338015 | 2.0075e-08 | au |
q | 2.459948578347579 | 1.208e-07 | au |
i | 10.458639242291 | 4.4932e-06 | deg |
node | 116.4122437778263 | 2.402e-05 | deg |
peri | 289.0561302588839 | 2.6462e-05 | deg |
M | 239.7028766313709 | 1.3506e-05 | deg |
tp | 2459669.586443421739 (2022-Mar-31.08644342) | 8.0177e-05 | TDB |
period | 2002.301575356207 5.48 | 1.9394e-05 5.31e-08 | d yr |
n | .1797930963201467 | 1.7414e-09 | deg/d |
Q | 3.758051222328452 | 2.4266e-08 | au |
|
| | Orbit Determination Parameters
Additional Information
|